Regional Weather Roundup
Issued by NWS

Home | Current Version | Previous Version | Graphics & Text | Print | Product List | Glossary On
Versions: 1 2 3 4 5 6 7 8 9 10 11 12 13 14 15 16 17 18 19 20 21 22 23 24 25 26 27 28 29 30 31 32 33 34 35 36 37 38 39 40 41 42 43 44 45 46 47 48 49 50
000
ASUS45 KCYS 302110
RWRWY

WYOMING REGIONAL WEATHER ROUNDUP
NATIONAL WEATHER SERVICE CHEYENNE WY
300 PM MDT THU JUL 30 2015

NOTE:  "FAIR" INDICATES FEW OR NO CLOUDS BELOW 12,000 FEET
WITH NO SIGNIFICANT WEATHER AND/OR OBSTRUCTIONS TO VISIBILITY.

WYZ001-302200-
...YELLOWSTONE NATIONAL PARK...

CITY           SKY/WX    TMP DP  RH WIND       PRES   REMARKS
LK YELLOWSTONE   N/A     67  41  38 SE8       30.55S
W YELLOWSTONE  NOT AVBL

$$
WYZ002>013-054>058-071-098>099-302200-
...NORTHERN WYOMING...

CITY           SKY/WX    TMP DP  RH WIND       PRES   REMARKS
JACKSON        SUNNY     77  37  24 CALM      30.43F
CODY           SUNNY     82  34  17 E6G17     30.32S
GREYBULL       SUNNY     87  30  13 VRB5      30.25F
WORLAND        SUNNY     86  27  11 VRB5      30.27F
SHERIDAN       SUNNY     89  36  15 VRB3      30.26F
BUFFALO        SUNNY     84  35  17 E3        30.33F
GILLETTE       SUNNY     87  35  15 NW7       30.29F
HULETT         FAIR      82  37  20 NW9       30.30F
NEWCASTLE      FAIR      86  30  13 W6        30.29F

$$
WYZ014>020-022>026-101>103-302200-
...CENTRAL WYOMING...

CITY           SKY/WX    TMP DP  RH WIND       PRES   REMARKS
BIG PINEY      SUNNY     79  22  12 SW8       30.46F
PINEDALE       SUNNY     77  14   9 E6        30.46F
DUBOIS         FAIR      77  21  12 CALM      30.45F
LANDER         SUNNY     85  31  14 NW7       30.32F
RIVERTON       SUNNY     83  27  13 VRB6      30.34F
CASPER         SUNNY     86  25  11 N9G17     30.33F
DOUGLAS        MOSUNNY   88  36  15 NE8       30.31F

$$
WYZ021-027>030-104>119-302200-
...SOUTHERN WYOMING...

CITY           SKY/WX    TMP DP  RH WIND       PRES   REMARKS
EVANSTON       MOSUNNY   80  16   9 VRB6      30.47F
KEMMERER       SUNNY     81  12   7 NW9G16    30.48S
FORT BRIDGER   SUNNY     82  18   9 W6G17     30.47F
ROCK SPRINGS   SUNNY     80  21  11 VRB6      30.42F
DIXON          FAIR      86  14   7 W7        30.42F
RAWLINS        SUNNY     84  15   7 VRB6      30.42F
SARATOGA       FAIR      82  19   9 SW6       30.44F
LARAMIE        SUNNY     81  24  12 SE7       30.45F
CHEYENNE       SUNNY     84  40  21 SE8       30.38F
TORRINGTON     SUNNY     89  45  21 SE9G18    30.26F
PINE BLUFFS    FAIR      86  41  20 NE7       30.33S

$$



USA.gov is the U.S. government's official web portal to all federal, state and local government web resources and services.